Weather History for Adana Incirlik AFB, Turkey

Change the Weather History Date:

Wednesday, September 4, 2013

  Actual Average Record
Temperature  
Mean Temperature 83 °F -  
Max Temperature 92 °F 91 °F 100 °F (2012)
Min Temperature 74 °F 68 °F 66 °F (1997)
Cooling Degree Days 18    
Growing Degree Days 33 (Base 50)    
Moisture  
Dew Point 68 °F    
Average Humidity 65    
Maximum Humidity 100    
Minimum Humidity 34    
Precipitation  
Precipitation 0.00 in - - ()
Sea Level Pressure  
Sea Level Pressure 29.75 in    
Wind  
Wind Speed 5 mph ()    
Max Wind Speed 17 mph    
Max Gust Speed -    
Visibility 6.4 miles    
Events Rain , Thunderstorm    
Averages and records for this station are not official NWS values.
T = Trace of Precipitation, MM = Missing Value Source: Averaged Metar Reports

Daily Weather History Graph

Daily Weather History Graph

Search for Another Location

Airport:

Trip Planner

Search our weather history database for the weather conditions in past years. The results will help you decide how hot, cold, wet, or windy it might be!

Date:

Astronomy

Sep. 04, 2013 Rise Set
Actual Time 6:11 AM EEST 7:02 PM EEST
Civil Twilight 5:45 AM EEST 7:28 PM EEST
Nautical Twilight 5:13 AM EEST 8:00 PM EEST
Astronomical Twilight 4:41 AM EEST 8:32 PM EEST
Moon 5:03 AM EEST (9/4) 6:11 PM EEST (9/4)
Length of Visible Light 13h 43m
Length of Day
12h 51m
Waning Crescent, 1% of the Moon is Illuminated
Sep 4
Waning Crescent
Sep 5
New
Sep 12
First Quarter
Sep 19
Full
Sep 27
Last Quarter

Hourly Weather History & Observations

Time (EEST) Temp. Heat Index Dew Point Humidity Pressure Visibility Wind Dir Wind Speed Gust Speed Precip Events Conditions
12:20 AM 78.8 °F - 78.8 °F 100% 29.77 in 6.2 mi SE 2.3 mph - N/A   Scattered Clouds
12:50 AM 80.6 °F 87.1 °F 77.0 °F 89% 29.77 in 6.2 mi SSE 2.3 mph - N/A   Scattered Clouds
1:20 AM 78.8 °F - 77.0 °F 94% 29.77 in 6.2 mi South 2.3 mph - N/A   Scattered Clouds
1:50 AM 78.8 °F - 77.0 °F 94% 29.77 in 6.2 mi SE 2.3 mph - N/A   Scattered Clouds
2:20 AM 78.8 °F - 77.0 °F 94% 29.77 in 6.2 mi NNE 2.3 mph - N/A   Scattered Clouds
2:50 AM 78.8 °F - 77.0 °F 94% 29.77 in 6.2 mi NNE 3.5 mph - N/A   Scattered Clouds
3:20 AM 77.0 °F - 77.0 °F 100% 29.77 in 6.2 mi East 2.3 mph - N/A   Scattered Clouds
3:50 AM 77.0 °F - 75.2 °F 94% 29.77 in 6.2 mi NE 4.6 mph - N/A   Scattered Clouds
4:20 AM 75.2 °F - 75.2 °F 100% 29.77 in 6.2 mi ENE 4.6 mph - N/A   Scattered Clouds
4:50 AM 75.2 °F - 75.2 °F 100% 29.77 in 6.2 mi NNE 4.6 mph - N/A   Scattered Clouds
5:20 AM 75.2 °F - 75.2 °F 100% 29.77 in 6.2 mi NE 5.8 mph - N/A   Scattered Clouds
5:50 AM 75.2 °F - 73.4 °F 94% 29.77 in 6.2 mi NE 5.8 mph - N/A   Scattered Clouds
6:20 AM 75.2 °F - 73.4 °F 94% 29.77 in 6.2 mi NE 5.8 mph - N/A   Scattered Clouds
6:50 AM 75.2 °F - 73.4 °F 94% 29.77 in 6.2 mi NE 4.6 mph - N/A   Scattered Clouds
7:20 AM 77.0 °F - 75.2 °F 94% 29.77 in 6.2 mi NE 2.3 mph - N/A   Scattered Clouds
7:50 AM 78.8 °F - 77.0 °F 94% 29.77 in 6.2 mi North 3.5 mph - N/A   Scattered Clouds
8:20 AM 80.6 °F 86.2 °F 75.2 °F 84% 29.77 in 6.2 mi NNE 2.3 mph - N/A   Scattered Clouds
8:50 AM 84.2 °F 90.9 °F 73.4 °F 70% 29.77 in 6.2 mi SSE 3.5 mph - N/A   Scattered Clouds
9:00 AM 84 °F - 74 °F 65% 29.78 in 6 mi SSE 3.5 mph - -   Partly Cloudy
9:20 AM 84.2 °F 90.9 °F 73.4 °F 70% 29.77 in 6.2 mi SSW 2.3 mph - N/A   Scattered Clouds
9:50 AM 84.2 °F 89.6 °F 71.6 °F 66% 29.77 in 6.2 mi Calm Calm - N/A   Scattered Clouds
10:20 AM 86.0 °F 91.8 °F 71.6 °F 62% 29.77 in 6.2 mi WSW 3.5 mph - N/A   Scattered Clouds
10:50 AM 87.8 °F 92.6 °F 69.8 °F 55% 29.77 in 6.2 mi SW 3.5 mph - N/A   Scattered Clouds
11:20 AM 87.8 °F 90.4 °F 66.2 °F 49% 29.77 in 6.2 mi SSW 5.8 mph - N/A   Scattered Clouds
11:50 AM 89.6 °F 91.1 °F 64.4 °F 43% 29.74 in 6.2 mi SSE 8.1 mph - N/A   Scattered Clouds
12:20 PM 91.4 °F 95.4 °F 68.0 °F 46% 29.74 in 6.2 mi SW 8.1 mph - N/A   Scattered Clouds
12:50 PM 91.4 °F 93.2 °F 64.4 °F 41% 29.74 in 6.2 mi SSW 9.2 mph - N/A   Scattered Clouds
1:20 PM 93.2 °F 97.7 °F 68.0 °F 44% 29.74 in 6.2 mi South 8.1 mph - N/A   Scattered Clouds
1:50 PM 91.4 °F 96.8 °F 69.8 °F 49% 29.74 in 6.2 mi SSW 12.7 mph - N/A   Scattered Clouds
2:20 PM 89.6 °F 94.7 °F 69.8 °F 52% 29.71 in 6.2 mi SSW 17.3 mph - N/A   Scattered Clouds
2:50 PM 91.4 °F 95.4 °F 68.0 °F 46% 29.71 in 6.2 mi SSW 15.0 mph - N/A   Scattered Clouds
3:00 PM 92 °F - 68 °F 36% 29.70 in 12 mi SSW 15.0 mph - -   Mostly Cloudy
3:20 PM 91.4 °F 98.4 °F 71.6 °F 52% 29.68 in 6.2 mi SSW 17.3 mph - N/A   Scattered Clouds
3:30 PM 91.4 °F 98.4 °F 71.6 °F 52% 29.71 in 6.2 mi WSW 15.0 mph - N/A Thunderstorm Thunderstorm
3:50 PM 84.2 °F 83.8 °F 59.0 °F 42% 29.74 in 6.2 mi WSW 17.3 mph - N/A Thunderstorm Thunderstorm
4:20 PM 80.6 °F 81.1 °F 59.0 °F 48% 29.74 in 6.2 mi NW 17.3 mph - N/A Rain , Thunderstorm Light Thunderstorms and Rain
4:50 PM 80.6 °F 81.1 °F 59.0 °F 48% 29.71 in 6.2 mi NE 6.9 mph - N/A   Scattered Clouds
5:20 PM 82.4 °F 82.5 °F 59.0 °F 45% 29.68 in 6.2 mi SSE 8.1 mph - N/A   Mostly Cloudy
5:50 PM 84.2 °F 83.5 °F 57.2 °F 40% 29.71 in 6.2 mi South 2.3 mph - N/A   Mostly Cloudy
6:20 PM 82.4 °F 83.9 °F 64.4 °F 54% 29.71 in 6.2 mi North 10.4 mph - N/A   Mostly Cloudy
6:50 PM 77.0 °F - 64.4 °F 65% 29.74 in 6.2 mi NE 17.3 mph - N/A   Mostly Cloudy
7:20 PM 77.0 °F - 62.6 °F 61% 29.74 in 6.2 mi NNE 12.7 mph - N/A Thunderstorm Thunderstorm
7:50 PM 77.0 °F - 62.6 °F 61% 29.77 in 6.2 mi ENE 4.6 mph - N/A Rain , Thunderstorm Light Thunderstorms and Rain
8:20 PM 77.0 °F - 62.6 °F 61% 29.77 in 6.2 mi ENE 4.6 mph - N/A   Mostly Cloudy
8:50 PM 77.0 °F - 62.6 °F 61% 29.77 in 6.2 mi South 2.3 mph - N/A   Mostly Cloudy
9:00 PM 77 °F - 62 °F 51% 29.76 in 12 mi South 2.3 mph - -   Mostly Cloudy
9:20 PM 78.8 °F - 57.2 °F 47% 29.77 in 6.2 mi ENE 4.6 mph - N/A   Mostly Cloudy
9:50 PM 78.8 °F - 55.4 °F 44% 29.77 in 6.2 mi NNE 6.9 mph - N/A   Scattered Clouds
10:20 PM 78.8 °F - 55.4 °F 44% 29.77 in 6.2 mi NE 8.1 mph - N/A   Scattered Clouds
10:50 PM 77.0 °F - 50.0 °F 39% 29.77 in 6.2 mi NE 10.4 mph - N/A   Scattered Clouds
11:20 PM 77.0 °F - 50.0 °F 39% 29.77 in 6.2 mi NE 12.7 mph - N/A   Scattered Clouds
11:50 PM 75.2 °F - 44.6 °F 34% 29.77 in 6.2 mi NE 11.5 mph - N/A   Scattered Clouds